User: anonymous   Login
Location: Chanteloup
(48.8560°N, 2.7390°E)
Time: 18:05:38
(UTC+00:00)
Language:

Cosmos 2360 Rocket - Orbit

View from above orbital plane
View from above orbital plane
View from above satellite
View from above satellite

Ground track
Ground track

The orbit data is extracted from the following two-line orbital elements,

1 25407U 98045B   22024.17650519  .00000133  00000-0  91889-4 0  9994
2 25407  71.0121 106.5978 0007080 179.0155 181.0983 14.15851066214252
Epoch (UTC): 24 January 2022 04:14:10
Eccentricity: 0.0007080
inclination: 71.0121°
perigee height: 834 km
apogee height: 844 km
right ascension of ascending node: 106.5978°
argument of perigee: 179.0155°
revolutions per day: 14.15851066
mean anomaly at epoch: 181.0983°
orbit number at epoch: 21425

The dashed part of the orbit path shows where the satellite is in the earth's shadow,  

DLR